Time,TemperatureF,DewpointF,PressureIn,WindDirection,WindDirectionDegrees,WindSpeedMPH,WindSpeedGustMPH,Humidity,HourlyPrecipIn,Conditions,Clouds,dailyrainin,SoftwareType,DateUTC
2013-11-07 00:00:00,32.5,31.0,30.33,NNE,22,0.0,-999.0,94,-99.99,,,0.00,Acu-Link.com,2013-11-07 06:00:00,
2013-11-07 00:15:00,32.4,30.9,30.33,NNE,22,0.0,-999.0,94,-99.99,,,0.00,Acu-Link.com,2013-11-07 06:15:00,
2013-11-07 00:30:00,32.0,30.5,30.34,NNE,22,0.0,-999.0,94,-99.99,,,0.00,Acu-Link.com,2013-11-07 06:30:00,
2013-11-07 00:46:00,31.1,29.6,30.35,NNE,22,0.0,-999.0,94,-99.99,,,0.00,Acu-Link.com,2013-11-07 06:46:00,
2013-11-07 01:01:00,32.9,31.6,30.35,NNE,22,0.0,-999.0,95,-99.99,,,0.00,Acu-Link.com,2013-11-07 07:01:00,
2013-11-07 01:16:00,32.2,30.9,30.34,NNE,22,0.0,-999.0,95,-99.99,,,0.00,Acu-Link.com,2013-11-07 07:16:00,
2013-11-07 01:31:00,32.5,31.2,30.34,NNE,22,0.0,-999.0,95,-99.99,,,0.00,Acu-Link.com,2013-11-07 07:31:00,
2013-11-07 01:46:00,31.1,29.8,30.35,NNE,22,0.0,-999.0,95,-99.99,,,0.00,Acu-Link.com,2013-11-07 07:46:00,
2013-11-07 02:03:00,30.6,29.3,30.35,NNE,22,0.0,-999.0,95,-99.99,,,0.00,Acu-Link.com,2013-11-07 08:03:00,
2013-11-07 02:18:00,31.3,30.0,30.35,NNE,22,0.0,-999.0,95,-99.99,,,0.00,Acu-Link.com,2013-11-07 08:18:00,
2013-11-07 02:33:00,31.8,30.5,30.35,NNE,22,0.0,-999.0,95,-99.99,,,0.00,Acu-Link.com,2013-11-07 08:33:00,
2013-11-07 02:48:00,30.7,29.4,30.35,NNE,22,0.0,-999.0,95,-99.99,,,0.00,Acu-Link.com,2013-11-07 08:48:00,
2013-11-07 03:03:00,30.0,28.7,30.36,NNE,22,0.0,-999.0,95,-99.99,,,0.00,Acu-Link.com,2013-11-07 09:03:00,
2013-11-07 03:18:00,30.2,28.9,30.36,NNE,22,0.0,-999.0,95,-99.99,,,0.00,Acu-Link.com,2013-11-07 09:18:00,
2013-11-07 03:33:00,30.9,29.6,30.37,NNE,22,0.0,-999.0,95,-99.99,,,0.00,Acu-Link.com,2013-11-07 09:33:00,
2013-11-07 03:48:00,30.9,29.6,30.37,NNE,22,0.0,-999.0,95,-99.99,,,0.00,Acu-Link.com,2013-11-07 09:48:00,
2013-11-07 04:03:00,30.4,29.1,30.38,NNE,22,0.0,-999.0,95,-99.99,,,0.00,Acu-Link.com,2013-11-07 10:03:00,
2013-11-07 04:19:00,31.5,30.5,30.38,NNE,22,0.0,-999.0,96,-99.99,,,0.00,Acu-Link.com,2013-11-07 10:19:00,
2013-11-07 04:34:00,31.3,30.3,30.38,NNE,22,0.0,-999.0,96,-99.99,,,0.00,Acu-Link.com,2013-11-07 10:34:00,
2013-11-07 04:49:00,30.2,29.2,30.37,NNE,22,0.0,-999.0,96,-99.99,,,0.00,Acu-Link.com,2013-11-07 10:49:00,
2013-11-07 05:04:00,29.7,28.7,30.38,NNE,22,0.0,-999.0,96,-99.99,,,0.00,Acu-Link.com,2013-11-07 11:04:00,
2013-11-07 05:19:00,28.8,27.8,30.39,NNE,22,0.0,-999.0,96,-99.99,,,0.00,Acu-Link.com,2013-11-07 11:19:00,
2013-11-07 05:34:00,28.8,27.8,30.40,NNE,22,0.0,-999.0,96,-99.99,,,0.00,Acu-Link.com,2013-11-07 11:34:00,
2013-11-07 05:49:00,29.3,28.3,30.40,NNE,22,0.0,-999.0,96,-99.99,,,0.00,Acu-Link.com,2013-11-07 11:49:00,
2013-11-07 06:04:00,29.1,28.1,30.40,NNE,22,0.0,-999.0,96,-99.99,,,0.00,Acu-Link.com,2013-11-07 12:04:00,
2013-11-07 06:19:00,29.5,28.5,30.40,NNE,22,0.0,-999.0,96,-99.99,,,0.00,Acu-Link.com,2013-11-07 12:19:00,
2013-11-07 06:35:00,28.9,27.9,30.40,NNE,22,0.0,-999.0,96,-99.99,,,0.00,Acu-Link.com,2013-11-07 12:35:00,
2013-11-07 06:50:00,30.4,29.4,30.41,NNE,22,0.0,-999.0,96,-99.99,,,0.00,Acu-Link.com,2013-11-07 12:50:00,
2013-11-07 07:05:00,30.6,29.6,30.41,NNE,22,0.0,-999.0,96,-99.99,,,0.00,Acu-Link.com,2013-11-07 13:05:00,
2013-11-07 07:20:00,30.7,29.7,30.41,NNE,22,0.0,-999.0,96,-99.99,,,0.00,Acu-Link.com,2013-11-07 13:20:00,
2013-11-07 07:35:00,31.8,30.8,30.42,NNE,22,0.0,-999.0,96,-99.99,,,0.00,Acu-Link.com,2013-11-07 13:35:00,
2013-11-07 07:50:00,33.3,32.3,30.42,NNE,22,0.0,-999.0,96,-99.99,,,0.00,Acu-Link.com,2013-11-07 13:50:00,
2013-11-07 08:05:00,37.0,36.0,30.43,NNE,22,0.0,-999.0,96,-99.99,,,0.00,Acu-Link.com,2013-11-07 14:05:00,
2013-11-07 08:20:00,38.7,37.4,30.42,NNE,22,2.2,-999.0,95,-99.99,,,0.00,Acu-Link.com,2013-11-07 14:20:00,
2013-11-07 08:36:00,40.8,37.8,30.43,NNE,22,2.2,-999.0,89,-99.99,,,0.00,Acu-Link.com,2013-11-07 14:36:00,
2013-11-07 08:51:00,43.3,39.1,30.44,SSW,202,4.2,-999.0,85,-99.99,,,0.00,Acu-Link.com,2013-11-07 14:51:00,
2013-11-07 09:06:00,45.0,39.8,30.43,WSW,247,4.7,-999.0,82,-99.99,,,0.00,Acu-Link.com,2013-11-07 15:06:00,
2013-11-07 09:21:00,46.8,40.6,30.43,SSW,202,3.7,-999.0,79,-99.99,,,0.00,Acu-Link.com,2013-11-07 15:21:00,
2013-11-07 09:36:00,47.8,40.6,30.44,South,180,4.2,-999.0,76,-99.99,,,0.00,Acu-Link.com,2013-11-07 15:36:00,
2013-11-07 09:51:00,49.1,41.2,30.44,South,180,3.2,-999.0,74,-99.99,,,0.00,Acu-Link.com,2013-11-07 15:51:00,
2013-11-07 10:06:00,50.7,41.6,30.44,WSW,247,2.7,-999.0,71,-99.99,,,0.00,Acu-Link.com,2013-11-07 16:06:00,
2013-11-07 10:51:00,51.1,42.4,30.43,WSW,247,3.2,-999.0,72,-99.99,,,0.00,Acu-Link.com,2013-11-07 16:51:00,
2013-11-07 11:11:00,55.8,40.8,30.43,WSW,247,0.0,-999.0,57,-99.99,,,0.00,Acu-Link.com,2013-11-07 17:11:00,
2013-11-07 11:27:00,58.3,41.2,30.42,WSW,247,4.7,-999.0,53,-99.99,,,0.00,Acu-Link.com,2013-11-07 17:27:00,
2013-11-07 11:42:00,58.6,41.0,30.41,West,270,0.0,-999.0,52,-99.99,,,0.00,Acu-Link.com,2013-11-07 17:42:00,
2013-11-07 11:57:00,59.9,39.1,30.40,West,270,2.7,-999.0,46,-99.99,,,0.00,Acu-Link.com,2013-11-07 17:57:00,
2013-11-07 12:12:00,61.0,40.1,30.40,West,270,1.7,-999.0,46,-99.99,,,0.00,Acu-Link.com,2013-11-07 18:12:00,
2013-11-07 12:27:00,60.8,39.3,30.39,West,270,3.2,-999.0,45,-99.99,,,0.00,Acu-Link.com,2013-11-07 18:27:00,
2013-11-07 12:42:00,62.4,38.4,30.38,SSW,202,1.7,-999.0,41,-99.99,,,0.00,Acu-Link.com,2013-11-07 18:42:00,
2013-11-07 12:57:00,63.0,38.3,30.37,West,270,2.2,-999.0,40,-99.99,,,0.00,Acu-Link.com,2013-11-07 18:57:00,
2013-11-07 13:12:00,63.5,37.4,30.36,NNE,22,3.2,-999.0,38,-99.99,,,0.00,Acu-Link.com,2013-11-07 19:12:00,
2013-11-07 13:27:00,63.9,37.1,30.35,WSW,247,4.2,-999.0,37,-99.99,,,0.00,Acu-Link.com,2013-11-07 19:27:00,
2013-11-07 13:43:00,64.8,36.5,30.35,West,270,3.7,-999.0,35,-99.99,,,0.00,Acu-Link.com,2013-11-07 19:43:00,
2013-11-07 13:58:00,64.8,37.9,30.34,East,90,3.2,-999.0,37,-99.99,,,0.00,Acu-Link.com,2013-11-07 19:58:00,
2013-11-07 14:13:00,65.1,36.0,30.34,WSW,247,3.7,-999.0,34,-99.99,,,0.00,Acu-Link.com,2013-11-07 20:13:00,
2013-11-07 14:28:00,65.3,36.9,30.34,WNW,292,1.1,-999.0,35,-99.99,,,0.00,Acu-Link.com,2013-11-07 20:28:00,
2013-11-07 14:43:00,65.7,36.6,30.33,West,270,3.2,-999.0,34,-99.99,,,0.00,Acu-Link.com,2013-11-07 20:43:00,
2013-11-07 14:58:00,65.1,35.3,30.33,WSW,247,0.0,-999.0,33,-99.99,,,0.00,Acu-Link.com,2013-11-07 20:58:00,
2013-11-07 15:13:00,64.9,37.3,30.32,South,180,1.7,-999.0,36,-99.99,,,0.00,Acu-Link.com,2013-11-07 21:13:00,
2013-11-07 15:28:00,66.0,38.3,30.32,South,180,3.7,-999.0,36,-99.99,,,0.00,Acu-Link.com,2013-11-07 21:28:00,
2013-11-07 15:44:00,66.0,36.8,30.32,South,180,3.7,-999.0,34,-99.99,,,0.00,Acu-Link.com,2013-11-07 21:44:00,
2013-11-07 16:02:00,66.0,37.6,30.31,South,180,2.2,-999.0,35,-99.99,,,0.00,Acu-Link.com,2013-11-07 22:02:00,
2013-11-07 16:19:00,63.7,38.3,30.31,South,180,2.7,-999.0,39,-99.99,,,0.00,Acu-Link.com,2013-11-07 22:19:00,
2013-11-07 16:34:00,63.7,39.6,30.31,South,180,1.7,-999.0,41,-99.99,,,0.00,Acu-Link.com,2013-11-07 22:34:00,
2013-11-07 16:49:00,63.7,40.2,30.31,South,180,1.7,-999.0,42,-99.99,,,0.00,Acu-Link.com,2013-11-07 22:49:00,
2013-11-07 17:04:00,60.8,41.0,30.31,South,180,0.0,-999.0,48,-99.99,,,0.00,Acu-Link.com,2013-11-07 23:04:00,
2013-11-07 17:19:00,56.7,40.7,30.30,South,180,0.0,-999.0,55,-99.99,,,0.00,Acu-Link.com,2013-11-07 23:19:00,
2013-11-07 17:34:00,54.5,40.5,30.30,South,180,0.0,-999.0,59,-99.99,,,0.00,Acu-Link.com,2013-11-07 23:34:00,
2013-11-07 17:50:00,53.6,39.6,30.31,South,180,0.0,-999.0,59,-99.99,,,0.00,Acu-Link.com,2013-11-07 23:50:00,
2013-11-07 18:05:00,52.9,39.0,30.31,South,180,0.0,-999.0,59,-99.99,,,0.00,Acu-Link.com,2013-11-08 00:05:00,
2013-11-07 18:20:00,51.6,38.6,30.31,South,180,2.7,-999.0,61,-99.99,,,0.00,Acu-Link.com,2013-11-08 00:20:00,
2013-11-07 18:35:00,51.4,38.4,30.31,South,180,2.2,-999.0,61,-99.99,,,0.00,Acu-Link.com,2013-11-08 00:35:00,
2013-11-07 18:50:00,51.1,38.1,30.31,South,180,1.1,-999.0,61,-99.99,,,0.00,Acu-Link.com,2013-11-08 00:50:00,
2013-11-07 19:05:00,51.3,37.9,30.32,South,180,0.0,-999.0,60,-99.99,,,0.00,Acu-Link.com,2013-11-08 01:05:00,
2013-11-07 19:20:00,50.9,37.5,30.31,South,180,0.0,-999.0,60,-99.99,,,0.00,Acu-Link.com,2013-11-08 01:20:00,
2013-11-07 19:36:00,48.7,37.1,30.31,South,180,0.0,-999.0,64,-99.99,,,0.00,Acu-Link.com,2013-11-08 01:36:00,
2013-11-07 19:51:00,47.3,36.9,30.31,South,180,0.0,-999.0,67,-99.99,,,0.00,Acu-Link.com,2013-11-08 01:51:00,
2013-11-07 20:06:00,46.0,36.0,30.31,South,180,0.0,-999.0,68,-99.99,,,0.00,Acu-Link.com,2013-11-08 02:06:00,
2013-11-07 20:21:00,44.1,36.4,30.30,South,180,0.0,-999.0,74,-99.99,,,0.00,Acu-Link.com,2013-11-08 02:21:00,
2013-11-07 20:36:00,43.3,35.9,30.31,South,180,0.0,-999.0,75,-99.99,,,0.00,Acu-Link.com,2013-11-08 02:36:00,
2013-11-07 20:51:00,43.2,35.8,30.30,South,180,0.0,-999.0,75,-99.99,,,0.00,Acu-Link.com,2013-11-08 02:51:00,
2013-11-07 21:06:00,42.3,36.3,30.30,South,180,0.0,-999.0,79,-99.99,,,0.00,Acu-Link.com,2013-11-08 03:06:00,
2013-11-07 21:21:00,41.7,35.7,30.30,South,180,0.0,-999.0,79,-99.99,,,0.00,Acu-Link.com,2013-11-08 03:21:00,
2013-11-07 21:36:00,41.0,35.3,30.30,South,180,0.0,-999.0,80,-99.99,,,0.00,Acu-Link.com,2013-11-08 03:36:00,
2013-11-07 21:52:00,40.1,35.7,30.30,South,180,0.0,-999.0,84,-99.99,,,0.00,Acu-Link.com,2013-11-08 03:52:00,
2013-11-07 22:07:00,40.3,36.2,30.30,South,180,0.0,-999.0,85,-99.99,,,0.00,Acu-Link.com,2013-11-08 04:07:00,
2013-11-07 22:22:00,39.6,35.2,30.30,South,180,0.0,-999.0,84,-99.99,,,0.00,Acu-Link.com,2013-11-08 04:22:00,
2013-11-07 22:37:00,39.4,35.3,30.29,South,180,0.0,-999.0,85,-99.99,,,0.00,Acu-Link.com,2013-11-08 04:37:00,
2013-11-07 22:52:00,38.8,34.7,30.29,South,180,0.0,-999.0,85,-99.99,,,0.00,Acu-Link.com,2013-11-08 04:52:00,
2013-11-07 23:07:00,38.5,34.7,30.29,South,180,0.0,-999.0,86,-99.99,,,0.00,Acu-Link.com,2013-11-08 05:07:00,
2013-11-07 23:22:00,38.8,35.0,30.30,South,180,0.0,-999.0,86,-99.99,,,0.00,Acu-Link.com,2013-11-08 05:22:00,
2013-11-07 23:37:00,38.8,35.0,30.29,South,180,0.0,-999.0,86,-99.99,,,0.00,Acu-Link.com,2013-11-08 05:37:00,
2013-11-07 23:52:00,38.7,35.2,30.29,South,180,0.0,-999.0,87,-99.99,,,0.00,Acu-Link.com,2013-11-08 05:52:00,